Lancaster, OH

4:20 AM EDT on August 28, 2016 (GMT -0400)
Fairfield County

Weather History for KLHQ - October, 2012

Change the Weather History Date:

Monday, October 15, 2012

  Actual Average Record
Temperature  
Mean Temperature 54 °F -  
Max Temperature 61 °F 67 °F 84 °F (1947)
Min Temperature 42 °F 41 °F 21 °F (1939)
Degree Days  
Heating Degree Days 11    
Growing Degree Days 4 (Base 50)    
Moisture  
Dew Point 46 °F    
Average Humidity 79    
Maximum Humidity 89    
Minimum Humidity 62    
Precipitation  
Precipitation 0.08 in - - ()
Sea Level Pressure  
Sea Level Pressure 29.85 in    
Wind  
Wind Speed 10 mph (West)    
Max Wind Speed 20 mph    
Max Gust Speed 34 mph    
Visibility 8 miles    
Events Rain    
Averages and records for this station are not official NWS values.
T = Trace of Precipitation, MM = Missing Value Source: NWS Daily Summary

Daily Weather History Graph

Daily Weather History Graph

Search for Another Location

Airport or City:

Trip Planner

Search our weather history database for the weather conditions in past years. The results will help you decide how hot, cold, wet, or windy it might be!

Date:

Astronomy

Oct. 15, 2012 Rise Set
Actual Time 7:41 AM EDT 6:50 PM EDT
Civil Twilight 7:14 AM EDT 7:17 PM EDT
Nautical Twilight 6:42 AM EDT 7:49 PM EDT
Astronomical Twilight 6:11 AM EDT 8:20 PM EDT
Moon 7:50 AM EDT (10/15) 6:49 PM EDT (10/15)
Length of Visible Light 12h 03m
Length of Day
11h 09m
New Moon, 0% of the Moon is Illuminated
Oct 15
New Moon
Oct 21
First Quarter
Oct 29
Full
Nov 6
Last Quarter
Nov 13
New

Hourly Weather History & Observations

Time (EDT) Temp. Windchill Dew Point Humidity Pressure Visibility Wind Dir Wind Speed Gust Speed Precip Events Conditions
12:53 AM 64.0 °F - 51.1 °F 63% 29.72 in 10.0 mi WNW 19.6 mph 34.5 mph 0.00 in Rain Light Rain
1:53 AM 60.1 °F - 54.0 °F 80% 29.74 in 10.0 mi West 17.3 mph 24.2 mph 0.04 in   Overcast
2:53 AM 57.9 °F - 48.0 °F 70% 29.77 in 10.0 mi WNW 9.2 mph 24.2 mph N/A   Overcast
3:53 AM 55.9 °F - 48.0 °F 75% 29.78 in 10.0 mi WNW 9.2 mph - N/A   Mostly Cloudy
4:17 AM 55.4 °F - 48.2 °F 77% 29.79 in 10.0 mi WNW 6.9 mph - N/A   Overcast
4:53 AM 55.0 °F - 45.0 °F 69% 29.79 in 10.0 mi WNW 6.9 mph - N/A   Overcast
5:53 AM 51.1 °F - 46.0 °F 83% 29.80 in 10.0 mi West 3.5 mph - N/A   Scattered Clouds
6:04 AM 51.8 °F - 46.4 °F 82% 29.81 in 10.0 mi Calm Calm - N/A   Mostly Cloudy
6:40 AM 51.8 °F - 46.4 °F 82% 29.81 in 10.0 mi SSW 3.5 mph - N/A   Mostly Cloudy
6:53 AM 52.0 °F - 46.0 °F 80% 29.80 in 10.0 mi SW 3.5 mph - N/A   Mostly Cloudy
7:27 AM 51.8 °F - 46.4 °F 82% 29.81 in 10.0 mi Calm Calm - N/A   Overcast
7:53 AM 52.0 °F - 46.9 °F 83% 29.81 in 10.0 mi SW 3.5 mph - N/A   Overcast
8:53 AM 53.1 °F - 46.0 °F 77% 29.82 in 10.0 mi WNW 8.1 mph - N/A   Overcast
9:53 AM 52.0 °F - 48.0 °F 86% 29.83 in 10.0 mi WSW 3.5 mph - 0.00 in   Overcast
10:53 AM 53.1 °F - 48.9 °F 86% 29.83 in 10.0 mi West 6.9 mph - N/A   Overcast
11:12 AM 53.6 °F - 48.2 °F 82% 29.85 in 2.0 mi West 15.0 mph 23.0 mph 0.03 in Rain Rain
11:19 AM 51.8 °F - 48.2 °F 88% 29.85 in 1.8 mi West 12.7 mph 23.0 mph 0.03 in Rain Light Rain
11:21 AM 51.8 °F - 48.2 °F 88% 29.86 in 2.5 mi West 12.7 mph 23.0 mph 0.03 in Rain Light Rain
11:23 AM 51.8 °F - 48.2 °F 88% 29.86 in 3.0 mi West 13.8 mph 23.0 mph 0.03 in Rain Light Rain
11:29 AM 51.8 °F - 48.2 °F 88% 29.86 in 2.0 mi West 10.4 mph 19.6 mph 0.04 in Rain Light Rain
11:41 AM 51.8 °F - 48.2 °F 88% 29.86 in 2.5 mi West 10.4 mph - 0.04 in Rain Light Rain
11:49 AM 51.8 °F - 48.2 °F 88% 29.86 in 5.0 mi West 11.5 mph - 0.04 in   Overcast
11:53 AM 52.0 °F - 48.9 °F 89% 29.85 in 7.0 mi West 11.5 mph - 0.04 in   Overcast
12:32 PM 53.6 °F - 48.2 °F 82% 29.86 in 9.0 mi West 12.7 mph 24.2 mph N/A   Overcast
12:53 PM 53.1 °F - 48.0 °F 83% 29.86 in 10.0 mi West 13.8 mph - N/A   Overcast
1:24 PM 51.8 °F - 46.4 °F 82% 29.87 in 9.0 mi West 16.1 mph 24.2 mph 0.00 in Rain Light Rain
1:40 PM 51.8 °F - 44.6 °F 76% 29.87 in 10.0 mi WNW 9.2 mph 19.6 mph 0.00 in   Overcast
1:53 PM 51.1 °F - 45.0 °F 80% 29.87 in 10.0 mi West 6.9 mph - 0.00 in   Overcast
2:53 PM 52.0 °F - 44.1 °F 74% 29.87 in 10.0 mi West 10.4 mph 19.6 mph N/A   Overcast
3:53 PM 52.0 °F - 46.0 °F 80% 29.89 in 7.0 mi West 10.4 mph 17.3 mph N/A   Overcast
4:53 PM 54.0 °F - 44.1 °F 69% 29.89 in 10.0 mi Variable 6.9 mph - N/A   Overcast
5:53 PM 54.0 °F - 43.0 °F 66% 29.91 in 10.0 mi WNW 9.2 mph - N/A   Overcast
6:53 PM 54.0 °F - 41.0 °F 62% 29.91 in 10.0 mi WNW 9.2 mph - N/A   Overcast
7:53 PM 50.0 °F - 41.0 °F 71% 29.93 in 10.0 mi West 5.8 mph - N/A   Partly Cloudy
8:53 PM 52.0 °F - 41.0 °F 66% 29.95 in 10.0 mi NW 6.9 mph - N/A   Overcast
9:53 PM 45.0 °F 43.5 °F 39.9 °F 82% 29.96 in 10.0 mi West 3.5 mph - N/A   Scattered Clouds
10:53 PM 44.1 °F 41.5 °F 39.0 °F 82% 29.96 in 10.0 mi WNW 4.6 mph - N/A   Mostly Cloudy
11:53 PM 42.1 °F - 39.0 °F 89% 29.96 in 10.0 mi Calm Calm - N/A   Overcast